Regional Weather Roundup
Issued by NWS Mobile, AL

Home | Current Version | Previous Version | Text Only | Print | Product List | Glossary On
Versions: 1 2 3 4 5 6 7 8 9 10 11 12 13 14 15 16 17 18 19 20 21 22 23 24 25 26 27 28 29 30 31 32 33 34 35 36 37 38 39 40 41 42 43 44 45 46 47 48 49 50
000
ASUS44 KMOB 271017
RWRMOB
REGIONAL WEATHER ROUNDUP
NATIONAL WEATHER SERVICE MOBILE AL
500 AM CDT MON APR 27 2015

ALZ061>064-271100-
COASTAL ALABAMA


CITY           SKY/WX    TMP DP  RH WIND       PRES   REMARKS
MOBILE REG APT CLOUDY    68  63  84 NE14      29.75R
BROOKLEY FIELD CLOUDY    70  66  87 N9        29.75R
GULF SHORES    CLOUDY    70  70 100 CALM      29.74R FOG

$$

ALZ051>060-271100-
INTERIOR SOUTHWEST AND SOUTH CENTRAL ALABAMA


CITY           SKY/WX    TMP DP  RH WIND       PRES   REMARKS
ANDALUSIA/OPP  CLOUDY    67  59  75 E5        29.79R
EVERGREEN      MOCLDY    63  59  87 N6        29.80R
FLORALA        CLOUDY    64  60  87 NE7       29.80R
GREENVILLE     FAIR      60  54  80 N6        29.80R

$$

FLZ001>006-271100-
WESTERN FLORIDA PANHANDLE


CITY           SKY/WX    TMP DP  RH WIND       PRES   REMARKS
CRESTVIEW      CLOUDY    68  64  87 NE8       29.77R
DESTIN         CLOUDY    73  71  93 N10       29.74R
DUKE FIELD     FAIR      68  67  97 N8        29.74R
MARY ESTHER    NOT AVBL
MILTON         CLOUDY    70  64  81 NE12      29.75R
PENSACOLA      CLOUDY    71  69  93 N9        29.73R
NAS PENSACOLA  CLOUDY    72  70  93 N5        29.73R
VALPARAISO     CLOUDY    71  70  97 N9        29.73R FOG

$$

...MARINE OBSERVATIONS...

STATION/POSITION TIME  SKY/WX   TEMP    WIND        PRES    VSBY
                                AIR SEA DIR/SP/G
                 (UTC)          (F)     (DEG/KT/KT) (MB)    (MI)
PASCAGOULA       0900            74      CALM  /  1 1006.1R
PETIT BOIS ISL   0900            77      CALM  /  1 1006.4R
E DAUPHIN ISLAND 1000            74      20/ 10/ 11 1006.7R
MIDDLE BAY LIGHT 0900            71      10/  7     1005.4S
USCG MOBILE BAY  0900            71 75  360/  7/ 10 1005.6R
STATE DOCKS      0900            70 70              1006.5R
MEAHER PARK      1000            70      10/  4     1007.1R
FORT MORGAN      0900            75     270/  1/  2 1005.9R
12 S ORANGE BCH  0950            75 75  170/  4/  4 1006.0R
WVE H/P(F/S)=  2/ 6

PENSACOLA BAY    0900            76 78   10/  2/  4 1006.4R
64 S DAUPHIN ISL 0950            77 77   70/  8/ 10 1006.4F
WVE H/P(F/S)=  2/ 8

67 S FORT MORGAN 0930            76                 1006.1F
115 SE PENSACOLA 0950            73 76  230/ 16/ 19 1007.9R
WVE H/P(F/S)=  3/ 7

MID GULF/42001   0950            80 81  140/ 14/ 16 1004.6F
WVE H/P(F/S)=  4/ 6

EAST GULF/42003  0950            80 79  190/ 14/ 16 1006.3S
WVE H/P(F/S)=  3/ 6


$$

...NEARBY LOCATIONS

CITY           SKY/WX    TMP DP  RH WIND       PRES   REMARKS
GULFPORT       CLOUDY    71  70  96 N9        29.73R FOG
BILOXI         CLOUDY    72  72 100 NE5       29.74
PASCAGOULA     CLOUDY    70  70 100 N5        29.74R
HATTIESBURG    MOCLDY    66  61  84 NE3       29.78R
LAUREL         MOCLDY    63  57  82 NE10      29.79R
MERIDIAN       CLOUDY    58  53  84 N15       29.84R
MERIDIAN NAS   CLOUDY    57  51  80 NE7       29.86R
MONTGOMERY     PTCLDY    60  52  74 N7        29.83R
MAXWELL AFB    PTCLDY    58  53  81 N7        29.82R
TROY           MOCLDY    62  55  77 N7        29.81R
FORT RUCKER    CLOUDY    65  59  81 NE6       29.78R
DALEVILLE      CLOUDY    65  58  77 N8        29.79R
DOTHAN         CLOUDY    64  60  87 N6        29.82R

$$

...OTHER SURROUNDING LOCATIONS...

CITY           SKY/WX    TMP DP  RH WIND       PRES   REMARKS
BIRMINGHAM     CLEAR     50  48  93 CALM      29.89R
TUSCALOOSA     PTCLDY    54  49  83 N7        29.87S
COLUMBUS GA    PTCLDY    58  50  75 N5        29.81R
PANAMA CITY    NOT AVBL
TALLAHASSEE    CLOUDY    70  68  93 SW3       29.75R
BATON ROUGE    MOCLDY    71  69  93 NE6       29.69F FOG
NEW ORLEANS    CLOUDY    75  71  87 NE5       29.71R
SLIDELL        FOG       70  70 100 N6        29.72R VSB 1/4
JACKSON        CLOUDY    61  54  77 NE10      29.82R
MCCOMB         MOCLDY    67  63  87 NE7       29.74F

$$

...SURROUNDING MARINE OBSERVATIONS...

STATION/POSITION TIME  SKY/WX   TEMP    WIND        PRES    VSBY
                                AIR SEA DIR/SP/G
                 (UTC)          (F)     (DEG/KT/KT) (MB)    (MI)
WAVELAND         0900            74 75   60/  5/  6 1006.0R
PASCAGOULA RGN A 0900            73      CALM  /  1 1005.8R
PASCAGOULA PORT  0900               76                N/A
GRAND ISLE       0900            77 78   90/  7/ 11 1004.5F
SOUTHWEST PASS   1000            73      70/ 17/ 17 1004.9R
PILOT STATION E  0900            73 66   60/ 13/ 14 1005.0S
SHELL BEACH      0900            76 78  100/  6/  7 1005.1R
PANAMA CITY      0900            75 77  210/  9/ 10 1006.3R
APALACHICOLA     0900            75 73  270/  2/  3 1006.5F
TYNDALL TOWER C  1000            75     220/ 10/ 11 1007.0R
S APLCHCLA/42036 0950            76 77  280/ 12/ 16 1008.8R
WVE H/P(F/S)=  3/ 7


$$




USA.gov is the U.S. government's official web portal to all federal, state and local government web resources and services.